Regional Weather Roundup
Issued by NWS

Home | Current Version | Previous Version | Graphics & Text | Print | Product List | Glossary On
Versions: 1 2 3 4 5 6 7 8 9 10 11 12 13 14 15 16 17 18 19 20 21 22 23 24 25 26 27 28 29 30 31 32 33 34 35 36 37 38 39 40 41 42 43 44 45 46 47 48 49 50
000
ASUS45 KBOI 290310
RWRID

IDAHO REGIONAL WEATHER ROUNDUP
NATIONAL WEATHER SERVICE BOISE ID
900 PM MDT TUE JUL 28 2015

NOTE: "FAIR" INDICATES FEW OR NO CLOUDS BELOW 12000 FEET
WITH NO SIGNIFICANT WEATHER AND/OR OBSTRUCTIONS TO VISIBILITY

IDZ012-014-290400-
SOUTHWEST IDAHO


CITY           SKY/WX    TMP DP  RH WIND       PRES   REMARKS
BOISE          CLEAR     76  36  23 NW6       30.17S
CALDWELL       CLEAR     73  37  27 NW7       30.18S
MOUNTAIN HOME  CLEAR     76  32  20 E2        30.17S
$$

IDZ016-017-290400-
SOUTHCENTRAL IDAHO


CITY           SKY/WX    TMP DP  RH WIND       PRES   REMARKS
BURLEY         CLEAR     64  31  28 E3        30.23S
JEROME         CLEAR     64  30  27 S3        30.24R
TWIN FALLS     CLEAR     68  29  23 SW3       30.22S
$$

IDZ019>023-290400-
SOUTHEAST IDAHO


CITY           SKY/WX    TMP DP  RH WIND       PRES   REMARKS
IDAHO FALLS    CLEAR     65  33  30 E6        30.29R
POCATELLO      CLEAR     66  29  24 CALM      30.27S
REXBURG        CLEAR     63  34  33 SE3       30.29S
$$

IDZ006-010-011-018-031-032-290400-
CENTRAL IDAHO MOUNTAINS


CITY           SKY/WX    TMP DP  RH WIND       PRES   REMARKS
MCCALL         CLEAR     66  33  29 S3        30.26S
HAILEY         PTCLDY    61  39  44 SE7       30.29S
STANLEY          N/A     55  34  45 SW3       30.34R
SALMON         CLEAR     63  43  48 CALM      30.24R
CHALLIS        CLEAR     62  38  40 NW6       30.27R
$$

IDZ002-004-006-007-026-290400-
NORTHERN IDAHO


CITY           SKY/WX    TMP DP  RH WIND       PRES   REMARKS
LEWISTON       CLEAR     81  34  18 E3        30.13R
LOWELL           N/A     64  51  62 CALM      30.17R
COEUR D`ALENE  PTCLDY    73  37  27 S7        30.16S
MULLAN PASS    CLEAR     54  37  52 VRB3      30.34R
$$



USA.gov is the U.S. government's official web portal to all federal, state and local government web resources and services.